Voltar ao catálogo

STARLINK-3582

AtivoComunicaçõesVLEO
NORAD 51873·PAYLOAD·🇺🇸 United States

Lançado Mar 3, 2022 de Cape Canaveral Space Force Station

Loading…

Próximas Passagens (próximas 24 horas)

TLE

AtualizadoSource: CelesTrak SupGP

Época: Sep 14, 2026, 21:53 UTC

1 51873C 22022X   26257.91229167  .00041626  00000+0  15556-2 0  2570
2 51873  53.1990 217.9711 0006621  90.8830 176.9576 15.26779016    10

Acompanhe STARLINK-3582 em tempo real com AllMySat

Download on the App Store